This is the latest recevied weather packets stored in our database for station/object KG5MMT-15. If no packets are shown the sender has not sent any weather packets the latest 10 day(s).
| Time | Temp. | Humidity | Pressure | Rain* | Wind** | Luminosity | Snow |
|---|---|---|---|---|---|---|---|
| 1777823542 | 16.11° C | 22% | 0 hPa | 0 mm | - | - | - |
| 1777823242 | 15.56° C | 19% | 0 hPa | 0 mm | - | - | - |
| 1777822942 | 16.11° C | 22% | 0 hPa | 0 mm | - | - | - |
| 1777822642 | 16.11° C | 22% | 0 hPa | 0 mm | - | - | - |
| 1777822342 | 15.56° C | 21% | 0 hPa | 0 mm | - | - | - |
| 1777822042 | 15° C | 23% | 0 hPa | 0 mm | - | - | - |
| 1777821742 | 14.44° C | 21% | 0 hPa | 0 mm | - | - | - |
| 1777821442 | 15° C | 19% | 0 hPa | 0 mm | - | - | - |
| 1777821142 | 16.11° C | 23% | 0 hPa | 0 mm | - | - | - |
| 1777820542 | 15.56° C | 29% | 0 hPa | 0 mm | - | - | - |
| 1777820242 | 15.56° C | 28% | 0 hPa | 0 mm | - | - | - |
| 1777819942 | 15° C | 30% | 0 hPa | 0 mm | - | - | - |
| 1777819042 | 14.44° C | 33% | 0 hPa | 0 mm | - | - | - |
| 1777818742 | 13.89° C | 32% | 0 hPa | 0 mm | - | - | - |
| 1777818142 | 12.78° C | 39% | 0 hPa | 0 mm | - | - | - |
| 1777817842 | 12.22° C | 40% | 0 hPa | 0 mm | - | - | - |
| 1777817542 | 11.67° C | 47% | 0 hPa | 0 mm | - | - | - |
| 1777816642 | 9.44° C | 54% | 0 hPa | 0 mm | - | - | - |
| 1777816342 | 8.33° C | 64% | 0 hPa | 0 mm | - | - | - |
| 1777816042 | 7.78° C | 69% | 0 hPa | 0 mm | - | - | - |
| 1777815442 | 6.11° C | 76% | 0 hPa | 0 mm | - | - | - |
| 1777814842 | 5.56° C | 80% | 0 hPa | 0 mm | - | - | - |
| 1777813342 | 2.78° C | 86% | 0 hPa | 0 mm | - | - | - |
| 1777813042 | 2.22° C | 88% | 0 hPa | 0 mm | - | - | - |
| 1777811842 | 1.67° C | 87% | 0 hPa | 0 mm | - | - | - |
* Rain latest hour (hover to see other rain measurements)
** Current wind speed in m/s (hover to see current wind gust speed)